Time,TemperatureF,DewpointF,PressureIn,WindDirection,WindDirectionDegrees,WindSpeedMPH,WindSpeedGustMPH,Humidity,HourlyPrecipIn,Conditions,Clouds,dailyrainin,SoftwareType,DateUTC
2013-04-05 00:00:00,57.7,43.5,30.15,East,93,8.0,11.6,59,0.00,,,-99.99,FreeWX 2.03,2013-04-05 05:00:00,
2013-04-05 00:05:00,57.7,43.9,30.15,East,85,8.0,17.2,60,0.00,,,-99.99,FreeWX 2.03,2013-04-05 05:05:00,
2013-04-05 00:10:00,57.6,44.2,30.15,East,81,10.0,15.2,61,0.00,,,-99.99,FreeWX 2.03,2013-04-05 05:10:00,
2013-04-05 00:15:00,57.6,44.6,30.15,East,81,11.0,16.3,62,0.00,,,-99.99,FreeWX 2.03,2013-04-05 05:15:00,
2013-04-05 00:20:00,57.4,44.4,30.15,East,79,12.0,18.6,62,0.00,,,-99.99,FreeWX 2.03,2013-04-05 05:20:00,
2013-04-05 00:25:00,57.4,44.4,30.15,East,79,12.0,18.6,62,0.00,,,-99.99,FreeWX 2.03,2013-04-05 05:25:00,
2013-04-05 00:30:00,57.2,43.9,30.15,East,82,11.0,16.8,61,0.00,,,-99.99,FreeWX 2.03,2013-04-05 05:30:00,
2013-04-05 00:35:00,57.2,43.5,30.15,ENE,78,11.0,16.8,60,0.00,,,-99.99,FreeWX 2.03,2013-04-05 05:35:00,
2013-04-05 00:40:00,57.2,43.5,30.15,East,79,11.0,16.8,60,0.00,,,-99.99,FreeWX 2.03,2013-04-05 05:40:00,
2013-04-05 00:45:00,57.2,43.5,30.15,East,84,10.0,17.2,60,0.00,,,-99.99,FreeWX 2.03,2013-04-05 05:45:00,
2013-04-05 00:50:00,57.2,43.9,30.15,East,87,9.0,12.5,61,0.00,,,-99.99,FreeWX 2.03,2013-04-05 05:50:00,
2013-04-05 00:55:00,57.2,43.9,30.15,East,91,8.0,18.1,61,0.00,,,-99.99,FreeWX 2.03,2013-04-05 05:55:00,
2013-04-05 01:00:00,57.2,43.9,30.15,East,96,8.0,16.3,61,0.00,,,-99.99,FreeWX 2.03,2013-04-05 06:00:00,
2013-04-05 01:05:00,57.0,43.7,30.15,East,93,9.0,13.0,61,0.00,,,-99.99,FreeWX 2.03,2013-04-05 06:05:00,
2013-04-05 01:10:00,56.8,43.9,30.15,East,88,9.0,15.9,62,0.00,,,-99.99,FreeWX 2.03,2013-04-05 06:10:00,
2013-04-05 01:15:00,56.7,43.7,30.15,East,84,11.0,17.7,62,0.00,,,-99.99,FreeWX 2.03,2013-04-05 06:15:00,
2013-04-05 01:20:00,56.5,44.1,30.15,East,81,11.0,15.4,63,0.00,,,-99.99,FreeWX 2.03,2013-04-05 06:20:00,
2013-04-05 01:25:00,56.5,44.1,30.15,East,86,10.0,16.3,63,0.00,,,-99.99,FreeWX 2.03,2013-04-05 06:25:00,
2013-04-05 01:30:00,56.3,43.9,30.15,East,91,10.0,16.8,63,0.00,,,-99.99,FreeWX 2.03,2013-04-05 06:30:00,
2013-04-05 01:35:00,56.3,44.2,30.15,East,93,10.0,16.3,64,0.00,,,-99.99,FreeWX 2.03,2013-04-05 06:35:00,
2013-04-05 01:40:00,56.3,44.2,30.15,East,100,9.0,15.4,64,0.00,,,-99.99,FreeWX 2.03,2013-04-05 06:40:00,
2013-04-05 01:45:00,56.1,44.1,30.15,ESE,102,9.0,17.2,64,0.00,,,-99.99,FreeWX 2.03,2013-04-05 06:45:00,
2013-04-05 01:50:00,55.9,44.4,30.15,East,101,9.0,14.8,65,0.00,,,-99.99,FreeWX 2.03,2013-04-05 06:50:00,
2013-04-05 01:55:00,55.9,44.4,30.15,East,99,9.0,15.4,65,0.00,,,-99.99,FreeWX 2.03,2013-04-05 06:55:00,
2013-04-05 02:00:00,55.8,44.2,30.15,East,94,8.0,16.3,65,0.00,,,-99.99,FreeWX 2.03,2013-04-05 07:00:00,
2013-04-05 02:05:00,55.6,44.4,30.15,East,93,8.0,13.9,66,0.00,,,-99.99,FreeWX 2.03,2013-04-05 07:05:00,
2013-04-05 02:10:00,55.6,44.4,30.15,East,99,8.0,16.8,66,0.00,,,-99.99,FreeWX 2.03,2013-04-05 07:10:00,
2013-04-05 02:15:00,55.4,44.6,30.15,East,97,8.0,15.4,67,0.00,,,-99.99,FreeWX 2.03,2013-04-05 07:15:00,
2013-04-05 02:20:00,55.4,44.6,30.15,East,92,8.0,15.4,67,0.00,,,-99.99,FreeWX 2.03,2013-04-05 07:20:00,
2013-04-05 02:25:00,55.4,45.0,30.15,East,93,9.0,19.0,68,0.00,,,-99.99,FreeWX 2.03,2013-04-05 07:25:00,
2013-04-05 02:30:00,55.2,44.8,30.15,East,86,11.0,18.1,68,0.00,,,-99.99,FreeWX 2.03,2013-04-05 07:30:00,
2013-04-05 02:35:00,55.2,45.1,30.15,East,86,11.0,15.4,69,0.00,,,-99.99,FreeWX 2.03,2013-04-05 07:35:00,
2013-04-05 02:40:00,55.0,45.5,30.15,East,94,10.0,14.8,70,0.00,,,-99.99,FreeWX 2.03,2013-04-05 07:40:00,
2013-04-05 02:45:00,55.0,45.5,30.15,East,97,8.0,11.2,70,0.00,,,-99.99,FreeWX 2.03,2013-04-05 07:45:00,
2013-04-05 02:50:00,55.0,45.9,30.15,East,99,8.0,15.2,71,0.00,,,-99.99,FreeWX 2.03,2013-04-05 07:50:00,
2013-04-05 02:55:00,55.0,45.9,30.18,East,99,7.0,11.2,71,0.00,,,-99.99,FreeWX 2.03,2013-04-05 07:55:00,
2013-04-05 03:00:00,54.9,45.7,30.18,East,96,6.0,11.0,71,0.00,,,-99.99,FreeWX 2.03,2013-04-05 08:00:00,
2013-04-05 03:05:00,54.7,45.5,30.18,East,89,6.0,9.6,71,0.00,,,-99.99,FreeWX 2.03,2013-04-05 08:05:00,
2013-04-05 03:10:00,54.5,45.7,30.18,East,85,7.0,11.0,72,0.00,,,-99.99,FreeWX 2.03,2013-04-05 08:10:00,
2013-04-05 03:16:00,54.5,45.7,30.18,East,87,6.0,10.1,72,0.00,,,-99.99,FreeWX 2.03,2013-04-05 08:16:00,
2013-04-05 03:21:00,54.5,46.0,30.18,East,93,6.0,11.0,73,0.00,,,-99.99,FreeWX 2.03,2013-04-05 08:21:00,
2013-04-05 03:26:00,54.3,45.9,30.18,East,83,5.0,5.4,73,0.00,,,-99.99,FreeWX 2.03,2013-04-05 08:26:00,
2013-04-05 03:31:00,54.1,46.0,30.18,ENE,77,4.0,7.8,74,0.00,,,-99.99,FreeWX 2.03,2013-04-05 08:31:00,
2013-04-05 03:36:00,54.1,46.0,30.18,East,81,5.0,8.3,74,0.00,,,-99.99,FreeWX 2.03,2013-04-05 08:36:00,
2013-04-05 03:41:00,54.0,45.9,30.15,East,85,6.0,10.1,74,0.00,,,-99.99,FreeWX 2.03,2013-04-05 08:41:00,
2013-04-05 03:46:00,53.8,46.0,30.15,East,88,7.0,12.5,75,0.00,,,-99.99,FreeWX 2.03,2013-04-05 08:46:00,
2013-04-05 03:51:00,53.8,46.0,30.15,East,86,7.0,12.1,75,0.00,,,-99.99,FreeWX 2.03,2013-04-05 08:51:00,
2013-04-05 03:56:00,53.8,46.0,30.15,East,87,8.0,13.9,75,0.00,,,-99.99,FreeWX 2.03,2013-04-05 08:56:00,
2013-04-05 04:01:00,53.6,45.9,30.15,East,88,8.0,13.4,75,0.00,,,-99.99,FreeWX 2.03,2013-04-05 09:01:00,
2013-04-05 04:06:00,53.6,45.9,30.15,East,87,8.0,14.3,75,0.00,,,-99.99,FreeWX 2.03,2013-04-05 09:06:00,
2013-04-05 04:11:00,53.6,46.2,30.18,East,91,8.0,14.3,76,0.00,,,-99.99,FreeWX 2.03,2013-04-05 09:11:00,
2013-04-05 04:16:00,53.6,46.2,30.18,East,97,8.0,13.9,76,0.00,,,-99.99,FreeWX 2.03,2013-04-05 09:16:00,
2013-04-05 04:21:00,53.6,46.2,30.18,East,90,8.0,13.0,76,0.00,,,-99.99,FreeWX 2.03,2013-04-05 09:21:00,
2013-04-05 04:26:00,53.6,46.2,30.18,East,85,9.0,14.3,76,0.00,,,-99.99,FreeWX 2.03,2013-04-05 09:26:00,
2013-04-05 04:31:00,53.4,46.4,30.18,East,86,9.0,13.9,77,0.00,,,-99.99,FreeWX 2.03,2013-04-05 09:31:00,
2013-04-05 04:36:00,53.4,46.4,30.18,East,89,9.0,14.3,77,0.00,,,-99.99,FreeWX 2.03,2013-04-05 09:36:00,
2013-04-05 04:46:00,53.2,46.6,30.18,ESE,103,9.0,13.9,78,0.00,,,-99.99,FreeWX 2.03,2013-04-05 09:46:00,
2013-04-05 04:51:00,53.2,46.9,30.18,ESE,103,9.0,14.8,79,0.00,,,-99.99,FreeWX 2.03,2013-04-05 09:51:00,
2013-04-05 04:56:00,53.1,46.4,30.15,East,99,9.0,13.0,78,0.00,,,-99.99,FreeWX 2.03,2013-04-05 09:56:00,
2013-04-05 05:01:00,52.9,46.2,30.15,East,92,9.0,14.8,78,0.00,,,-99.99,FreeWX 2.03,2013-04-05 10:01:00,
2013-04-05 05:17:00,52.5,45.9,30.15,East,91,9.0,16.3,78,0.00,,,-99.99,FreeWX 2.03,2013-04-05 10:17:00,
2013-04-05 05:22:00,52.3,45.7,30.15,East,89,9.0,14.3,78,0.00,,,-99.99,FreeWX 2.03,2013-04-05 10:22:00,
2013-04-05 05:32:00,52.2,45.5,30.15,East,87,10.0,16.3,78,0.00,,,-99.99,FreeWX 2.03,2013-04-05 10:32:00,
2013-04-05 05:37:00,52.2,45.5,30.15,East,84,9.0,14.8,78,0.00,,,-99.99,FreeWX 2.03,2013-04-05 10:37:00,
2013-04-05 05:42:00,52.2,45.5,30.18,East,82,8.0,11.6,78,0.00,,,-99.99,FreeWX 2.03,2013-04-05 10:42:00,
2013-04-05 05:47:00,52.0,45.3,30.18,East,80,8.0,11.6,78,0.00,,,-99.99,FreeWX 2.03,2013-04-05 10:47:00,
2013-04-05 05:58:00,52.0,45.3,30.18,East,80,9.0,12.5,78,0.00,,,-99.99,FreeWX 2.03,2013-04-05 10:58:00,
2013-04-05 06:03:00,51.8,45.1,30.18,ENE,77,8.0,12.5,78,0.00,,,-99.99,FreeWX 2.03,2013-04-05 11:03:00,
2013-04-05 06:08:00,51.8,45.1,30.18,ENE,78,8.0,12.1,78,0.00,,,-99.99,FreeWX 2.03,2013-04-05 11:08:00,
2013-04-05 06:13:00,51.8,45.1,30.18,East,86,8.0,13.0,78,0.00,,,-99.99,FreeWX 2.03,2013-04-05 11:13:00,
2013-04-05 06:18:00,51.8,45.5,30.18,East,88,8.0,12.1,79,0.00,,,-99.99,FreeWX 2.03,2013-04-05 11:18:00,
2013-04-05 06:23:00,51.8,45.5,30.18,East,82,7.0,11.2,79,0.00,,,-99.99,FreeWX 2.03,2013-04-05 11:23:00,
2013-04-05 06:28:00,51.8,45.5,30.18,East,87,6.0,10.5,79,0.00,,,-99.99,FreeWX 2.03,2013-04-05 11:28:00,
2013-04-05 06:33:00,51.8,45.9,30.18,East,98,7.0,12.5,80,0.00,,,-99.99,FreeWX 2.03,2013-04-05 11:33:00,
2013-04-05 06:38:00,51.8,45.9,30.18,East,101,8.0,13.4,80,0.00,,,-99.99,FreeWX 2.03,2013-04-05 11:38:00,
2013-04-05 06:43:00,51.8,46.2,30.18,East,101,8.0,11.2,81,0.00,,,-99.99,FreeWX 2.03,2013-04-05 11:43:00,
2013-04-05 06:48:00,51.6,46.0,30.18,East,91,8.0,13.9,81,0.00,,,-99.99,FreeWX 2.03,2013-04-05 11:48:00,
2013-04-05 06:53:00,51.6,46.0,30.18,East,81,9.0,13.0,81,0.00,,,-99.99,FreeWX 2.03,2013-04-05 11:53:00,
2013-04-05 06:58:00,51.6,46.0,30.18,East,84,8.0,13.0,81,0.00,,,-99.99,FreeWX 2.03,2013-04-05 11:58:00,
2013-04-05 07:03:00,51.6,46.0,30.18,East,87,8.0,12.1,81,0.00,,,-99.99,FreeWX 2.03,2013-04-05 12:03:00,
2013-04-05 07:08:00,51.6,46.2,30.18,East,85,8.0,11.0,82,0.00,,,-99.99,FreeWX 2.03,2013-04-05 12:08:00,
2013-04-05 07:13:00,51.6,46.2,30.21,East,79,6.0,9.2,82,0.00,,,-99.99,FreeWX 2.03,2013-04-05 12:13:00,
2013-04-05 07:18:00,51.4,46.0,30.21,ENE,72,5.0,8.3,82,0.00,,,-99.99,FreeWX 2.03,2013-04-05 12:18:00,
2013-04-05 07:23:00,51.4,46.0,30.21,ENE,64,5.0,6.7,82,0.00,,,-99.99,FreeWX 2.03,2013-04-05 12:23:00,
2013-04-05 07:28:00,51.3,46.0,30.21,ENE,63,5.0,6.9,82,0.00,,,-99.99,FreeWX 2.03,2013-04-05 12:28:00,
2013-04-05 07:33:00,51.3,46.0,30.21,ENE,74,5.0,8.3,82,0.00,,,-99.99,FreeWX 2.03,2013-04-05 12:33:00,
2013-04-05 07:38:00,51.3,46.0,30.21,ENE,75,5.0,6.9,82,0.00,,,-99.99,FreeWX 2.03,2013-04-05 12:38:00,
2013-04-05 07:43:00,51.3,46.2,30.21,ENE,72,5.0,6.7,83,0.00,,,-99.99,FreeWX 2.03,2013-04-05 12:43:00,
2013-04-05 07:48:00,51.3,46.2,30.21,ENE,73,4.0,6.9,83,0.00,,,-99.99,FreeWX 2.03,2013-04-05 12:48:00,
2013-04-05 07:53:00,51.3,46.2,30.21,ENE,62,5.0,7.4,83,0.00,,,-99.99,FreeWX 2.03,2013-04-05 12:53:00,
2013-04-05 07:58:00,51.4,46.8,30.21,North,5,5.0,7.4,84,0.00,,,-99.99,FreeWX 2.03,2013-04-05 12:58:00,
2013-04-05 08:03:00,51.6,46.9,30.21,NW,326,5.0,7.4,84,0.00,,,-99.99,FreeWX 2.03,2013-04-05 13:03:00,
2013-04-05 08:08:00,51.6,47.3,30.21,NNW,330,6.0,8.7,85,0.00,,,-99.99,FreeWX 2.03,2013-04-05 13:08:00,
2013-04-05 08:13:00,51.8,47.5,30.21,NNW,330,6.0,8.7,85,0.00,,,-99.99,FreeWX 2.03,2013-04-05 13:13:00,
2013-04-05 08:18:00,51.8,47.5,30.21,NNW,333,6.0,8.3,85,0.00,,,-99.99,FreeWX 2.03,2013-04-05 13:18:00,
2013-04-05 08:23:00,51.8,47.7,30.21,NNW,341,6.0,9.6,86,0.00,,,-99.99,FreeWX 2.03,2013-04-05 13:23:00,
2013-04-05 08:28:00,52.0,47.8,30.24,NNW,340,6.0,8.7,86,0.00,,,-99.99,FreeWX 2.03,2013-04-05 13:28:00,
2013-04-05 08:33:00,52.0,47.8,30.24,NNW,338,6.0,9.2,86,0.00,,,-99.99,FreeWX 2.03,2013-04-05 13:33:00,
2013-04-05 08:38:00,52.2,48.0,30.24,NNW,337,6.0,8.7,86,0.00,,,-99.99,FreeWX 2.03,2013-04-05 13:38:00,
2013-04-05 08:43:00,52.2,48.0,30.24,NNW,345,6.0,8.7,86,0.00,,,-99.99,FreeWX 2.03,2013-04-05 13:43:00,
2013-04-05 08:54:00,52.5,48.4,30.24,North,8,7.0,9.2,86,0.00,,,-99.99,FreeWX 2.03,2013-04-05 13:54:00,
2013-04-05 08:59:00,52.7,48.6,30.24,NNE,17,7.0,11.2,86,0.00,,,-99.99,FreeWX 2.03,2013-04-05 13:59:00,
2013-04-05 09:04:00,52.9,48.7,30.24,NNE,22,8.0,11.2,86,0.00,,,-99.99,FreeWX 2.03,2013-04-05 14:04:00,
2013-04-05 09:09:00,53.2,49.1,30.24,NE,36,8.0,10.1,86,0.00,,,-99.99,FreeWX 2.03,2013-04-05 14:09:00,
2013-04-05 09:14:00,53.6,49.3,30.24,NE,44,7.0,9.2,85,0.00,,,-99.99,FreeWX 2.03,2013-04-05 14:14:00,
2013-04-05 09:19:00,54.0,49.3,30.24,NE,50,7.0,11.0,84,0.00,,,-99.99,FreeWX 2.03,2013-04-05 14:19:00,
2013-04-05 09:24:00,54.3,49.3,30.24,NE,47,8.0,13.0,83,0.00,,,-99.99,FreeWX 2.03,2013-04-05 14:24:00,
2013-04-05 09:29:00,54.5,49.1,30.24,NE,50,8.0,13.9,82,0.00,,,-99.99,FreeWX 2.03,2013-04-05 14:29:00,
2013-04-05 09:34:00,54.9,49.1,30.24,NE,55,8.0,11.0,81,0.00,,,-99.99,FreeWX 2.03,2013-04-05 14:34:00,
2013-04-05 09:39:00,55.0,48.9,30.24,ENE,62,8.0,12.1,80,0.00,,,-99.99,FreeWX 2.03,2013-04-05 14:39:00,
2013-04-05 09:44:00,55.4,48.9,30.24,ENE,70,8.0,13.4,79,0.00,,,-99.99,FreeWX 2.03,2013-04-05 14:44:00,
2013-04-05 10:00:00,56.3,48.9,30.24,ENE,60,8.0,12.5,76,0.00,,,-99.99,FreeWX 2.03,2013-04-05 15:00:00,
2013-04-05 10:05:00,56.7,49.1,30.24,ENE,65,9.0,13.0,76,0.00,,,-99.99,FreeWX 2.03,2013-04-05 15:05:00,
2013-04-05 10:10:00,57.0,49.5,30.24,East,81,8.0,12.1,76,0.00,,,-99.99,FreeWX 2.03,2013-04-05 15:10:00,
2013-04-05 10:15:00,57.4,49.8,30.24,East,89,7.0,13.0,76,0.00,,,-99.99,FreeWX 2.03,2013-04-05 15:15:00,
2013-04-05 10:20:00,57.7,49.8,30.24,East,88,8.0,13.4,75,0.00,,,-99.99,FreeWX 2.03,2013-04-05 15:20:00,
2013-04-05 10:25:00,58.1,50.2,30.24,East,93,8.0,13.9,75,0.00,,,-99.99,FreeWX 2.03,2013-04-05 15:25:00,
2013-04-05 10:30:00,58.6,51.1,30.24,ESE,106,8.0,13.9,76,0.00,,,-99.99,FreeWX 2.03,2013-04-05 15:30:00,
2013-04-05 10:35:00,59.0,51.1,30.24,East,99,8.0,15.2,75,0.00,,,-99.99,FreeWX 2.03,2013-04-05 15:35:00,
2013-04-05 10:40:00,59.4,51.1,30.24,East,98,7.0,12.5,74,0.00,,,-99.99,FreeWX 2.03,2013-04-05 15:40:00,
2013-04-05 10:45:00,59.9,51.6,30.24,ESE,104,8.0,13.9,74,0.00,,,-99.99,FreeWX 2.03,2013-04-05 15:45:00,
2013-04-05 10:50:00,60.6,52.3,30.24,East,100,9.0,14.8,74,0.00,,,-99.99,FreeWX 2.03,2013-04-05 15:50:00,
2013-04-05 10:55:00,61.3,52.2,30.24,East,101,8.0,11.0,72,0.00,,,-99.99,FreeWX 2.03,2013-04-05 15:55:00,
2013-04-05 11:00:00,62.4,52.9,30.24,ESE,104,8.0,15.4,71,0.00,,,-99.99,FreeWX 2.03,2013-04-05 16:00:00,
2013-04-05 11:05:00,63.3,52.9,30.24,ESE,107,8.0,14.8,69,0.00,,,-99.99,FreeWX 2.03,2013-04-05 16:05:00,
2013-04-05 11:10:00,64.2,53.1,30.24,ESE,109,9.0,16.3,67,0.00,,,-99.99,FreeWX 2.03,2013-04-05 16:10:00,
2013-04-05 11:15:00,65.1,53.1,30.24,ESE,117,8.0,13.0,65,0.00,,,-99.99,FreeWX 2.03,2013-04-05 16:15:00,
2013-04-05 11:20:00,65.5,52.5,30.24,ESE,114,8.0,15.9,63,0.00,,,-99.99,FreeWX 2.03,2013-04-05 16:20:00,
2013-04-05 11:25:00,65.7,51.8,30.24,ESE,110,9.0,13.4,61,0.00,,,-99.99,FreeWX 2.03,2013-04-05 16:25:00,
2013-04-05 11:30:00,65.7,51.4,30.24,ESE,117,8.0,13.4,60,0.00,,,-99.99,FreeWX 2.03,2013-04-05 16:30:00,
2013-04-05 11:35:00,65.7,50.9,30.24,ESE,118,8.0,15.2,59,0.00,,,-99.99,FreeWX 2.03,2013-04-05 16:35:00,
2013-04-05 11:40:00,65.8,50.7,30.24,ESE,120,9.0,13.9,58,0.00,,,-99.99,FreeWX 2.03,2013-04-05 16:40:00,
2013-04-05 11:45:00,66.2,50.5,30.24,ESE,120,9.0,14.3,57,0.00,,,-99.99,FreeWX 2.03,2013-04-05 16:45:00,
2013-04-05 11:50:00,66.4,50.7,30.24,ESE,118,8.0,11.2,57,0.00,,,-99.99,FreeWX 2.03,2013-04-05 16:50:00,
2013-04-05 11:55:00,66.6,50.4,30.24,ESE,116,8.0,14.3,56,0.00,,,-99.99,FreeWX 2.03,2013-04-05 16:55:00,
2013-04-05 12:00:00,66.7,50.0,30.24,ESE,121,8.0,11.0,55,0.00,,,-99.99,FreeWX 2.03,2013-04-05 17:00:00,
2013-04-05 12:05:00,66.9,50.2,30.24,SE,128,6.0,12.5,55,0.00,,,-99.99,FreeWX 2.03,2013-04-05 17:05:00,
2013-04-05 12:10:00,66.9,50.2,30.24,ESE,122,7.0,14.3,55,0.00,,,-99.99,FreeWX 2.03,2013-04-05 17:10:00,
2013-04-05 12:15:00,66.7,49.6,30.24,ESE,121,8.0,12.1,54,0.00,,,-99.99,FreeWX 2.03,2013-04-05 17:15:00,
2013-04-05 12:21:00,66.4,49.6,30.24,ESE,119,7.0,9.6,55,0.00,,,-99.99,FreeWX 2.03,2013-04-05 17:21:00,
2013-04-05 12:26:00,66.6,49.8,30.24,SE,127,6.0,11.6,55,0.00,,,-99.99,FreeWX 2.03,2013-04-05 17:26:00,
2013-04-05 12:31:00,66.6,49.5,30.24,SE,144,6.0,11.2,54,0.00,,,-99.99,FreeWX 2.03,2013-04-05 17:31:00,
2013-04-05 12:36:00,66.4,49.3,30.24,SE,142,6.0,11.6,54,0.00,,,-99.99,FreeWX 2.03,2013-04-05 17:36:00,
2013-04-05 12:41:00,66.2,49.1,30.24,SE,134,6.0,11.0,54,0.00,,,-99.99,FreeWX 2.03,2013-04-05 17:41:00,
2013-04-05 12:46:00,66.2,49.1,30.24,SE,140,6.0,10.1,54,0.00,,,-99.99,FreeWX 2.03,2013-04-05 17:46:00,
2013-04-05 12:51:00,66.2,49.1,30.24,SSE,150,6.0,10.5,54,0.00,,,-99.99,FreeWX 2.03,2013-04-05 17:51:00,
2013-04-05 12:56:00,66.2,49.1,30.21,SE,139,6.0,11.0,54,0.00,,,-99.99,FreeWX 2.03,2013-04-05 17:56:00,
2013-04-05 13:01:00,66.0,48.9,30.21,ESE,123,6.0,11.2,54,0.00,,,-99.99,FreeWX 2.03,2013-04-05 18:01:00,
2013-04-05 13:06:00,65.8,49.3,30.21,SE,133,4.0,10.1,55,0.00,,,-99.99,FreeWX 2.03,2013-04-05 18:06:00,
2013-04-05 13:11:00,66.0,49.5,30.21,SE,140,5.0,12.1,55,0.00,,,-99.99,FreeWX 2.03,2013-04-05 18:11:00,
2013-04-05 13:16:00,66.0,49.5,30.21,SE,135,6.0,11.0,55,0.00,,,-99.99,FreeWX 2.03,2013-04-05 18:16:00,
2013-04-05 13:31:00,66.0,48.9,30.21,SE,125,6.0,11.2,54,0.00,,,-99.99,FreeWX 2.03,2013-04-05 18:31:00,
2013-04-05 13:37:00,66.2,49.1,30.21,ESE,122,6.0,11.0,54,0.00,,,-99.99,FreeWX 2.03,2013-04-05 18:37:00,
2013-04-05 13:42:00,66.4,49.3,30.21,ESE,118,5.0,10.1,54,0.00,,,-99.99,FreeWX 2.03,2013-04-05 18:42:00,
2013-04-05 13:47:00,66.4,49.3,30.21,ESE,123,5.0,10.1,54,0.00,,,-99.99,FreeWX 2.03,2013-04-05 18:47:00,
2013-04-05 13:52:00,66.4,49.3,30.21,ESE,119,6.0,11.0,54,0.00,,,-99.99,FreeWX 2.03,2013-04-05 18:52:00,
2013-04-05 13:57:00,66.4,49.3,30.18,ESE,113,6.0,9.2,54,0.00,,,-99.99,FreeWX 2.03,2013-04-05 18:57:00,
2013-04-05 14:02:00,66.4,49.3,30.18,ESE,112,6.0,13.0,54,0.00,,,-99.99,FreeWX 2.03,2013-04-05 19:02:00,
2013-04-05 14:07:00,66.6,49.5,30.18,ESE,111,6.0,9.2,54,0.00,,,-99.99,FreeWX 2.03,2013-04-05 19:07:00,
2013-04-05 14:12:00,66.7,49.6,30.18,ESE,111,6.0,10.1,54,0.00,,,-99.99,FreeWX 2.03,2013-04-05 19:12:00,
2013-04-05 14:17:00,66.9,49.3,30.18,ESE,105,7.0,13.0,53,0.00,,,-99.99,FreeWX 2.03,2013-04-05 19:17:00,
2013-04-05 14:22:00,66.7,48.6,30.18,ESE,106,6.0,9.6,52,0.00,,,-99.99,FreeWX 2.03,2013-04-05 19:22:00,
2013-04-05 14:27:00,66.6,48.4,30.18,ESE,118,4.0,8.7,52,0.00,,,-99.99,FreeWX 2.03,2013-04-05 19:27:00,
2013-04-05 14:32:00,66.6,48.4,30.18,SE,125,4.0,10.5,52,0.00,,,-99.99,FreeWX 2.03,2013-04-05 19:32:00,
2013-04-05 14:37:00,66.6,47.8,30.18,ESE,117,6.0,10.5,51,0.00,,,-99.99,FreeWX 2.03,2013-04-05 19:37:00,
2013-04-05 14:42:00,66.6,48.4,30.18,ESE,110,6.0,10.1,52,0.00,,,-99.99,FreeWX 2.03,2013-04-05 19:42:00,
2013-04-05 14:47:00,66.7,48.6,30.18,ESE,116,6.0,10.5,52,0.00,,,-99.99,FreeWX 2.03,2013-04-05 19:47:00,
2013-04-05 14:52:00,66.7,48.0,30.18,ESE,121,6.0,10.1,51,0.00,,,-99.99,FreeWX 2.03,2013-04-05 19:52:00,
2013-04-05 14:57:00,66.6,47.8,30.15,ESE,112,6.0,9.2,51,0.00,,,-99.99,FreeWX 2.03,2013-04-05 19:57:00,
2013-04-05 15:02:00,66.6,47.8,30.15,ESE,107,6.0,9.6,51,0.00,,,-99.99,FreeWX 2.03,2013-04-05 20:02:00,
2013-04-05 15:07:00,66.6,47.8,30.15,ESE,106,6.0,10.5,51,0.00,,,-99.99,FreeWX 2.03,2013-04-05 20:07:00,
2013-04-05 15:12:00,66.4,48.2,30.15,ESE,105,7.0,10.5,52,0.00,,,-99.99,FreeWX 2.03,2013-04-05 20:12:00,
2013-04-05 15:17:00,66.4,47.7,30.15,ESE,111,6.0,9.6,51,0.00,,,-99.99,FreeWX 2.03,2013-04-05 20:17:00,
2013-04-05 15:22:00,66.4,48.2,30.15,ESE,116,6.0,10.1,52,0.00,,,-99.99,FreeWX 2.03,2013-04-05 20:22:00,
2013-04-05 15:27:00,66.6,48.4,30.15,ESE,114,6.0,11.0,52,0.00,,,-99.99,FreeWX 2.03,2013-04-05 20:27:00,
2013-04-05 15:32:00,66.6,47.8,30.15,ESE,114,6.0,10.5,51,0.00,,,-99.99,FreeWX 2.03,2013-04-05 20:32:00,
2013-04-05 15:37:00,66.7,48.0,30.15,ESE,111,7.0,11.2,51,0.00,,,-99.99,FreeWX 2.03,2013-04-05 20:37:00,
2013-04-05 15:42:00,66.7,48.6,30.12,ESE,104,8.0,13.4,52,0.00,,,-99.99,FreeWX 2.03,2013-04-05 20:42:00,
2013-04-05 15:47:00,67.1,48.9,30.12,East,101,8.0,13.0,52,0.00,,,-99.99,FreeWX 2.03,2013-04-05 20:47:00,
2013-04-05 15:52:00,67.1,48.9,30.12,ESE,102,8.0,14.3,52,0.00,,,-99.99,FreeWX 2.03,2013-04-05 20:52:00,
2013-04-05 15:57:00,67.1,48.9,30.12,ESE,104,8.0,12.1,52,0.00,,,-99.99,FreeWX 2.03,2013-04-05 20:57:00,
2013-04-05 16:02:00,67.1,48.4,30.12,ESE,106,8.0,14.8,51,0.00,,,-99.99,FreeWX 2.03,2013-04-05 21:02:00,
2013-04-05 16:07:00,67.1,48.4,30.12,ESE,104,8.0,13.0,51,0.00,,,-99.99,FreeWX 2.03,2013-04-05 21:07:00,
2013-04-05 16:12:00,66.7,47.5,30.12,ESE,103,8.0,14.8,50,0.00,,,-99.99,FreeWX 2.03,2013-04-05 21:12:00,
2013-04-05 16:17:00,66.6,47.8,30.12,ESE,105,8.0,14.3,51,0.00,,,-99.99,FreeWX 2.03,2013-04-05 21:17:00,
2013-04-05 16:22:00,66.6,48.9,30.12,ESE,111,5.0,11.6,53,0.00,,,-99.99,FreeWX 2.03,2013-04-05 21:22:00,
2013-04-05 16:27:00,66.6,48.9,30.12,ESE,118,1.0,0.0,53,0.00,,,-99.99,FreeWX 2.03,2013-04-05 21:27:00,
2013-04-05 16:32:00,66.6,48.9,30.12,North,-999,0.0,0.0,53,0.00,,,-99.99,FreeWX 2.03,2013-04-05 21:32:00,
2013-04-05 16:37:00,66.6,48.9,30.12,North,-999,0.0,0.0,53,0.00,,,-99.99,FreeWX 2.03,2013-04-05 21:37:00,
2013-04-05 16:42:00,66.4,48.7,30.09,North,-999,0.0,0.0,53,0.00,,,-99.99,FreeWX 2.03,2013-04-05 21:42:00,
2013-04-05 16:47:00,66.6,49.5,30.09,North,-999,0.0,0.0,54,0.00,,,-99.99,FreeWX 2.03,2013-04-05 21:47:00,
2013-04-05 16:52:00,66.7,49.6,30.09,North,-999,0.0,0.0,54,0.00,,,-99.99,FreeWX 2.03,2013-04-05 21:52:00,
2013-04-05 16:57:00,66.7,49.6,30.12,North,-999,0.0,0.0,54,0.00,,,-99.99,FreeWX 2.03,2013-04-05 21:57:00,
2013-04-05 17:02:00,66.7,49.6,30.12,North,-999,0.0,0.0,54,0.00,,,-99.99,FreeWX 2.03,2013-04-05 22:02:00,
2013-04-05 17:07:00,66.9,49.6,30.12,North,-999,0.0,0.0,54,0.00,,,-99.99,FreeWX 2.03,2013-04-05 22:07:00,
2013-04-05 17:12:00,66.7,49.6,30.09,North,-999,0.0,0.0,54,0.00,,,-99.99,FreeWX 2.03,2013-04-05 22:12:00,
2013-04-05 17:17:00,66.7,49.6,30.09,North,-999,0.0,0.0,54,0.00,,,-99.99,FreeWX 2.03,2013-04-05 22:17:00,
2013-04-05 17:22:00,66.6,49.5,30.09,North,-999,0.0,0.0,54,0.00,,,-99.99,FreeWX 2.03,2013-04-05 22:22:00,
2013-04-05 17:27:00,66.2,49.1,30.09,North,-999,0.0,0.0,54,0.00,,,-99.99,FreeWX 2.03,2013-04-05 22:27:00,
2013-04-05 17:32:00,66.2,49.5,30.09,North,-999,0.0,0.0,55,0.00,,,-99.99,FreeWX 2.03,2013-04-05 22:32:00,
2013-04-05 17:37:00,66.0,49.8,30.09,North,-999,0.0,0.0,56,0.00,,,-99.99,FreeWX 2.03,2013-04-05 22:37:00,
2013-04-05 17:43:00,65.8,49.6,30.09,North,-999,0.0,0.0,56,0.00,,,-99.99,FreeWX 2.03,2013-04-05 22:43:00,
2013-04-05 17:48:00,65.5,49.3,30.09,North,-999,0.0,0.0,56,0.00,,,-99.99,FreeWX 2.03,2013-04-05 22:48:00,
2013-04-05 17:53:00,65.3,49.3,30.09,North,-999,0.0,0.0,56,0.00,,,-99.99,FreeWX 2.03,2013-04-05 22:53:00,
2013-04-05 17:58:00,65.3,49.6,30.09,North,-999,0.0,0.0,57,0.00,,,-99.99,FreeWX 2.03,2013-04-05 22:58:00,
2013-04-05 18:03:00,65.1,49.5,30.09,North,-999,0.0,0.0,57,0.00,,,-99.99,FreeWX 2.03,2013-04-05 23:03:00,
2013-04-05 18:08:00,64.9,49.8,30.09,North,-999,0.0,0.0,58,0.00,,,-99.99,FreeWX 2.03,2013-04-05 23:08:00,
2013-04-05 18:13:00,64.8,49.6,30.09,North,-999,0.0,0.0,58,0.00,,,-99.99,FreeWX 2.03,2013-04-05 23:13:00,
2013-04-05 18:18:00,64.8,49.6,30.09,North,-999,0.0,0.0,58,0.00,,,-99.99,FreeWX 2.03,2013-04-05 23:18:00,
2013-04-05 18:23:00,64.6,50.0,30.09,North,-999,0.0,0.0,59,0.00,,,-99.99,FreeWX 2.03,2013-04-05 23:23:00,
2013-04-05 18:28:00,64.6,50.0,30.09,North,-999,0.0,0.0,59,0.00,,,-99.99,FreeWX 2.03,2013-04-05 23:28:00,
2013-04-05 18:33:00,64.4,50.2,30.09,North,-999,0.0,0.0,60,0.00,,,-99.99,FreeWX 2.03,2013-04-05 23:33:00,
2013-04-05 18:38:00,64.2,50.5,30.09,North,-999,0.0,0.0,61,0.00,,,-99.99,FreeWX 2.03,2013-04-05 23:38:00,
2013-04-05 18:43:00,64.0,50.7,30.09,North,-999,0.0,0.0,62,0.00,,,-99.99,FreeWX 2.03,2013-04-05 23:43:00,
2013-04-05 18:48:00,63.7,50.4,30.09,North,-999,0.0,0.0,62,0.00,,,-99.99,FreeWX 2.03,2013-04-05 23:48:00,
2013-04-05 18:53:00,63.5,50.7,30.09,North,-999,0.0,0.0,63,0.00,,,-99.99,FreeWX 2.03,2013-04-05 23:53:00,
2013-04-05 18:58:00,63.3,50.9,30.09,North,-999,0.0,0.0,64,0.00,,,-99.99,FreeWX 2.03,2013-04-05 23:58:00,
2013-04-05 19:03:00,63.3,50.9,30.09,North,-999,0.0,0.0,64,0.00,,,-99.99,FreeWX 2.03,2013-04-06 00:03:00,
2013-04-05 19:08:00,63.1,51.3,30.09,North,-999,0.0,0.0,65,0.00,,,-99.99,FreeWX 2.03,2013-04-06 00:08:00,
2013-04-05 19:13:00,63.0,51.4,30.09,North,-999,0.0,7.8,66,0.00,,,-99.99,FreeWX 2.03,2013-04-06 00:13:00,
2013-04-05 19:18:00,62.8,51.3,30.09,SE,137,4.0,13.4,66,0.00,,,-99.99,FreeWX 2.03,2013-04-06 00:18:00,
2013-04-05 19:23:00,62.8,51.3,30.09,SE,137,8.0,14.8,66,0.00,,,-99.99,FreeWX 2.03,2013-04-06 00:23:00,
2013-04-05 19:28:00,62.6,51.4,30.06,SE,138,8.0,13.9,67,0.00,,,-99.99,FreeWX 2.03,2013-04-06 00:28:00,
2013-04-05 19:33:00,62.4,51.3,30.06,SE,136,9.0,15.4,67,0.00,,,-99.99,FreeWX 2.03,2013-04-06 00:33:00,
2013-04-05 19:38:00,62.4,51.8,30.06,SE,132,10.0,13.9,68,0.00,,,-99.99,FreeWX 2.03,2013-04-06 00:38:00,
2013-04-05 19:43:00,62.2,52.0,30.09,SE,136,9.0,14.3,69,0.00,,,-99.99,FreeWX 2.03,2013-04-06 00:43:00,
2013-04-05 19:48:00,62.2,52.3,30.09,SE,142,8.0,12.1,70,0.00,,,-99.99,FreeWX 2.03,2013-04-06 00:48:00,
2013-04-05 19:53:00,62.1,52.2,30.09,SE,141,8.0,13.0,70,0.00,,,-99.99,FreeWX 2.03,2013-04-06 00:53:00,
2013-04-05 19:58:00,62.1,52.5,30.06,SE,141,8.0,12.5,71,0.00,,,-99.99,FreeWX 2.03,2013-04-06 00:58:00,
2013-04-05 20:03:00,62.1,52.9,30.06,SE,141,8.0,12.5,72,0.00,,,-99.99,FreeWX 2.03,2013-04-06 01:03:00,
2013-04-05 20:08:00,61.9,52.7,30.06,SE,141,8.0,13.4,72,0.00,,,-99.99,FreeWX 2.03,2013-04-06 01:08:00,
2013-04-05 20:13:00,61.9,52.7,30.09,SE,142,8.0,11.6,72,0.00,,,-99.99,FreeWX 2.03,2013-04-06 01:13:00,
2013-04-05 20:18:00,61.7,52.9,30.09,SE,142,7.0,12.5,73,0.00,,,-99.99,FreeWX 2.03,2013-04-06 01:18:00,
2013-04-05 20:23:00,61.7,52.9,30.09,SE,143,8.0,14.3,73,0.00,,,-99.99,FreeWX 2.03,2013-04-06 01:23:00,
2013-04-05 20:39:00,61.7,53.2,30.09,SE,145,9.0,13.9,74,0.00,,,-99.99,FreeWX 2.03,2013-04-06 01:39:00,
2013-04-05 20:44:00,61.7,53.8,30.09,SE,145,9.0,13.4,75,0.00,,,-99.99,FreeWX 2.03,2013-04-06 01:44:00,
2013-04-05 20:49:00,61.7,53.8,30.09,SE,145,9.0,13.9,75,0.00,,,-99.99,FreeWX 2.03,2013-04-06 01:49:00,
2013-04-05 20:54:00,61.7,54.1,30.09,SSE,147,9.0,13.9,76,0.00,,,-99.99,FreeWX 2.03,2013-04-06 01:54:00,
2013-04-05 20:59:00,61.7,54.1,30.06,SE,146,8.0,14.3,76,0.00,,,-99.99,FreeWX 2.03,2013-04-06 01:59:00,
2013-04-05 21:04:00,61.7,54.1,30.06,SE,142,8.0,13.9,76,0.00,,,-99.99,FreeWX 2.03,2013-04-06 02:04:00,
2013-04-05 21:09:00,61.7,54.5,30.06,SE,145,8.0,12.5,77,0.00,,,-99.99,FreeWX 2.03,2013-04-06 02:09:00,
2013-04-05 21:14:00,61.7,54.5,30.09,SSE,149,8.0,13.4,77,0.00,,,-99.99,FreeWX 2.03,2013-04-06 02:14:00,
2013-04-05 21:19:00,61.7,54.5,30.09,SSE,147,8.0,12.5,77,0.00,,,-99.99,FreeWX 2.03,2013-04-06 02:19:00,
2013-04-05 21:24:00,61.7,54.7,30.09,SE,142,8.0,13.0,78,0.00,,,-99.99,FreeWX 2.03,2013-04-06 02:24:00,
2013-04-05 21:29:00,61.7,54.7,30.09,SE,141,8.0,11.6,78,0.00,,,-99.99,FreeWX 2.03,2013-04-06 02:29:00,
2013-04-05 21:34:00,61.9,54.9,30.09,SE,145,8.0,12.1,78,0.00,,,-99.99,FreeWX 2.03,2013-04-06 02:34:00,
2013-04-05 21:39:00,61.9,55.2,30.09,SSE,147,8.0,13.9,79,0.00,,,-99.99,FreeWX 2.03,2013-04-06 02:39:00,
2013-04-05 21:44:00,61.9,55.2,30.09,SSE,149,8.0,16.8,79,0.00,,,-99.99,FreeWX 2.03,2013-04-06 02:44:00,
2013-04-05 21:49:00,61.9,55.2,30.09,SSE,148,9.0,17.2,79,0.00,,,-99.99,FreeWX 2.03,2013-04-06 02:49:00,
2013-04-05 21:55:00,62.1,55.4,30.06,SE,146,10.0,14.8,79,0.00,,,-99.99,FreeWX 2.03,2013-04-06 02:55:00,
2013-04-05 22:00:00,62.1,55.8,30.06,SE,144,9.0,15.4,80,0.00,,,-99.99,FreeWX 2.03,2013-04-06 03:00:00,
2013-04-05 22:10:00,62.1,55.8,30.06,SE,146,9.0,0.0,80,0.00,,,-99.99,FreeWX 2.03,2013-04-06 03:10:00,
2013-04-05 22:15:00,62.1,55.8,30.06,SE,146,9.0,0.0,80,0.00,,,-99.99,FreeWX 2.03,2013-04-06 03:15:00,
2013-04-05 22:20:00,62.1,55.8,30.06,SE,146,9.0,0.0,80,0.00,,,-99.99,FreeWX 2.03,2013-04-06 03:20:00,
2013-04-05 22:25:00,62.1,55.8,30.06,SE,146,9.0,0.0,80,0.00,,,-99.99,FreeWX 2.03,2013-04-06 03:25:00,
2013-04-05 22:30:00,62.1,55.8,30.06,SE,146,9.0,0.0,80,0.00,,,-99.99,FreeWX 2.03,2013-04-06 03:30:00,
2013-04-05 22:35:00,62.1,55.8,30.06,SE,146,9.0,0.0,80,0.00,,,-99.99,FreeWX 2.03,2013-04-06 03:35:00,
2013-04-05 22:40:00,62.4,56.1,30.09,SSE,151,10.0,14.8,80,0.00,,,-99.99,FreeWX 2.03,2013-04-06 03:40:00,
2013-04-05 22:45:00,62.4,56.1,30.09,SSE,155,9.0,13.4,80,0.00,,,-99.99,FreeWX 2.03,2013-04-06 03:45:00,
2013-04-05 22:50:00,62.6,56.3,30.09,SSE,156,8.0,13.9,80,0.00,,,-99.99,FreeWX 2.03,2013-04-06 03:50:00,
2013-04-05 22:55:00,62.6,56.3,30.09,SSE,158,8.0,12.5,80,0.00,,,-99.99,FreeWX 2.03,2013-04-06 03:55:00,
2013-04-05 23:00:00,62.6,56.3,30.09,SSE,159,8.0,11.6,80,0.00,,,-99.99,FreeWX 2.03,2013-04-06 04:00:00,
2013-04-05 23:26:00,62.6,56.7,30.09,SSE,163,8.0,13.0,81,0.00,,,-99.99,FreeWX 2.03,2013-04-06 04:26:00,
2013-04-05 23:31:00,62.6,56.7,30.09,SSE,161,8.0,12.5,81,0.00,,,-99.99,FreeWX 2.03,2013-04-06 04:31:00,
2013-04-05 23:36:00,62.6,56.7,30.09,SSE,159,8.0,14.3,81,0.00,,,-99.99,FreeWX 2.03,2013-04-06 04:36:00,
2013-04-05 23:42:00,62.6,56.7,30.09,SSE,160,9.0,13.0,81,0.00,,,-99.99,FreeWX 2.03,2013-04-06 04:42:00,
2013-04-05 23:47:00,62.6,56.7,30.09,SSE,160,9.0,14.3,81,0.00,,,-99.99,FreeWX 2.03,2013-04-06 04:47:00,
2013-04-05 23:52:00,62.6,56.7,30.09,SSE,166,8.0,13.0,81,0.00,,,-99.99,FreeWX 2.03,2013-04-06 04:52:00,
2013-04-05 23:57:00,62.6,56.7,30.09,South,169,8.0,12.5,81,0.00,,,-99.99,FreeWX 2.03,2013-04-06 04:57:00,